Decimomannu, Italy

6:20 AM CEST on May 25, 2017 (GMT +0200)
Decimomannu Mil

Weather History for LIED - January, 2013

Change the Weather History Date:

Sunday, January 6, 2013

  Actual Average Record
Temperature  
Mean Temperature 49 °F -  
Max Temperature 61 °F 57 °F 68 °F (2001)
Min Temperature 37 °F 40 °F 26 °F (2002)
Degree Days  
Heating Degree Days 16    
Moisture  
Dew Point 43 °F    
Average Humidity 82    
Maximum Humidity 88    
Minimum Humidity 67    
Precipitation  
Precipitation 0.00 in 0.07 in - ()
Sea Level Pressure  
Sea Level Pressure 30.20 in    
Wind  
Wind Speed 2 mph ()    
Max Wind Speed 8 mph    
Max Gust Speed -    
Visibility 5.8 miles    
Events Fog    
Averages and records for this station are not official NWS values.
T = Trace of Precipitation, MM = Missing Value Source: Averaged Metar Reports

Daily Weather History Graph

Daily Weather History Graph

Search for Another Location

Airport or City:

Trip Planner

Search our weather history database for the weather conditions in past years. The results will help you decide how hot, cold, wet, or windy it might be!

Date:

Astronomy

Jan. 06, 2013 Rise Set
Actual Time 7:44 AM CET 5:15 PM CET
Civil Twilight 7:14 AM CET 5:45 PM CET
Nautical Twilight 6:40 AM CET 6:19 PM CET
Astronomical Twilight 6:08 AM CET 6:51 PM CET
Moon 1:40 AM CET (1/6) 12:31 PM CET (1/6)
Length of Visible Light 10h 31m
Length of Day
9h 31m
Waning Crescent, 36% of the Moon is Illuminated
Jan 6
Waning Crescent
Jan 11
New
Jan 19
First Quarter
Jan 27
Full
Feb 3
Last Quarter

Hourly Weather History & Observations

Time (CET) Temp. Windchill Dew Point Humidity Pressure Visibility Wind Dir Wind Speed Gust Speed Precip Events Conditions
12:55 AM 46.4 °F - 41.0 °F 81% 30.18 in 6.2 mi WNW 2.3 mph - N/A   Partly Cloudy
1:00 AM 46 °F - 42 °F 79% 30.20 in 7 mi WNW 2.3 mph - -   Scattered Clouds
2:55 AM 42.8 °F - 39.2 °F 87% 30.18 in 6.2 mi WNW 1.2 mph - N/A   Partly Cloudy
3:55 AM 41.0 °F - 35.6 °F 81% 30.18 in 6.2 mi Calm Calm - N/A   Partly Cloudy
4:00 AM 41 °F - 36 °F 77% 30.19 in 7 mi Calm Calm - -   Scattered Clouds
5:55 AM 41.0 °F 39.0 °F 37.4 °F 87% 30.18 in 6.2 mi North 3.5 mph - N/A   Partly Cloudy
6:55 AM 39.2 °F - 33.8 °F 81% 30.21 in 1.6 mi WNW 1.2 mph - N/A   Scattered Clouds
7:00 AM 38 °F - 34 °F 81% 30.22 in 2 mi WNW 1.2 mph - -   Mist
7:36 AM 39.2 °F - 33.8 °F 81% 30.21 in 1.2 mi WNW 1.2 mph - N/A Fog Fog
7:55 AM 37.4 °F - 33.8 °F 87% 30.21 in 0.5 mi WNW 1.2 mph - N/A Fog Fog
8:55 AM 41.0 °F - 35.6 °F 81% 30.21 in 4.3 mi NW 1.2 mph - N/A   Scattered Clouds
9:55 AM 46.4 °F 45.2 °F 41.0 °F 81% 30.24 in 6.2 mi WNW 3.5 mph - N/A   Partly Cloudy
10:00 AM 46 °F - 42 °F 79% 30.26 in 9 mi WNW 3.5 mph - -   Partly Cloudy
10:55 AM 53.6 °F - 48.2 °F 82% 30.24 in - West 3.5 mph - N/A   Clear
11:55 AM 55.4 °F - 48.2 °F 77% 30.24 in - North 3.5 mph - N/A   Clear
12:55 PM 57.2 °F - 50.0 °F 77% 30.21 in - West 2.3 mph - N/A   Clear
1:00 PM 58 °F - 50 °F 67% 30.23 in 12 mi West 2.3 mph - -   Partly Cloudy
1:55 PM 59.0 °F - 51.8 °F 77% 30.18 in - NNW 3.5 mph - N/A   Clear
2:55 PM 59.0 °F - 51.8 °F 77% 30.18 in 6.2 mi NNW 8.1 mph - N/A   Partly Cloudy
3:55 PM 59.0 °F - 53.6 °F 82% 30.18 in 6.2 mi NW 6.9 mph - N/A   Partly Cloudy
4:55 PM 57.2 °F - 51.8 °F 82% 30.18 in 6.2 mi NNW 4.6 mph - N/A   Partly Cloudy
5:55 PM 53.6 °F - 50.0 °F 88% 30.18 in 6.2 mi NW 5.8 mph - N/A   Partly Cloudy
6:55 PM 51.8 °F - 48.2 °F 88% 30.21 in 6.2 mi NNW 3.5 mph - N/A   Partly Cloudy
7:00 PM 52 °F - 49 °F 85% 30.22 in 6 mi NNW 3.5 mph - -   Scattered Clouds
7:55 PM 50.0 °F - 46.4 °F 87% 30.18 in 6.2 mi WNW 4.6 mph - N/A   Partly Cloudy
8:55 PM 48.2 °F - 44.6 °F 87% 30.18 in 6.2 mi NNW 5.8 mph - N/A   Partly Cloudy
9:55 PM 46.4 °F 45.2 °F 42.8 °F 87% 30.18 in 6.2 mi WNW 3.5 mph - N/A   Partly Cloudy
10:00 PM 47 °F - 43 °F 80% 30.21 in 6 mi WNW 3.5 mph - -   Scattered Clouds
10:55 PM 48.2 °F - 42.8 °F 82% 30.18 in 6.2 mi North 5.8 mph - N/A   Partly Cloudy
11:55 PM 48.2 °F - 44.6 °F 87% 30.21 in 6.2 mi North 4.6 mph - N/A   Partly Cloudy